Regional Weather Roundup
Issued by NWS

Home | Current Version | Previous Version | Text Only | Print | Product List | Glossary On
Versions: 1 2 3 4 5 6 7 8 9 10 11 12 13 14 15 16 17 18 19 20 21 22 23 24 25 26 27 28 29 30 31 32 33 34 35 36 37 38 39 40 41 42 43 44 45 46 47 48 49 50
000
ASUS44 KJAN 010210
RWRMS

MISSISSIPPI HOURLY WEATHER ROUNDUP
NATIONAL WEATHER SERVICE JACKSON MS
900 PM CDT THU JUL 31 2014

NOTE: "FAIR: INDICATES FEW OR NO CLOUDS BELOW 12,000 FEET WITH NO
SIGNIFICANT WEATHER AND/OR OBSTRUCTIONS TO VISIBILITY.

MSZ001>002-007>008-010>013-018>021-025>028-034>036-010300-
NORTHWEST MISSISSIPPI

CITY           SKY/WX    TMP DP  RH WIND       PRES   REMARKS
CLARKSDALE     MOCLDY    72  70  94 NE3       30.05S
CLEVELAND      CLOUDY    73  71  91 NE5       30.03S
GREENWOOD      MOCLDY    71  69  93 CALM      30.03S FOG
GREENVILLE     CLOUDY    72  70  93 NE3       30.02F FOG
GRENADA        FAIR      72  66  83 N5        30.04S
OLIVE BRANCH   PTCLDY    72  72 100 CALM      30.06S
OXFORD         FAIR      72  66  83 CALM      30.06F
TUNICA         CLOUDY    72  66  83 N5        30.06S
$$

MSZ003>006-009-014>017-022>024-029>033-037>039-010300-
NORTHEAST MISSISSIPPI

CITY           SKY/WX    TMP DP  RH WIND       PRES   REMARKS
BELMONT        FAIR      71  66  86 CALM      30.06R
COLUMBUS AFB   DRIZZLE   72  64  78 CALM      30.04S
CORINTH        FAIR      68  64  88 CALM      30.05S
GOLDN TRIANGLE MOCLDY    73  63  68 CALM      30.04F
STARKVILLE     FAIR      70  66  88 CALM      30.04S
TUPELO         MOCLDY    74  65  73 NE3       30.04S
$$

MSZ040-058-010300-
CENTRAL MISSISSIPPI

CITY           SKY/WX    TMP DP  RH WIND       PRES   REMARKS
JACKSON INTL   MOCLDY    76  67  73 E3        30.01F
JACKSON HAWKNS CLOUDY    77  64  64 CALM      30.01F
MERIDIAN KEY   MOCLDY    74  62  66 NE8       30.02S
MERIDIAN NAS   CLOUDY    75  63  66 N3        30.04R
RAYMOND        FAIR      72  66  83 CALM      30.01F
VICKSBURG      CLOUDY    75  68  78 CALM      30.01S
$$

MSZ059>079-010300-
SOUTH MISSISSIPPI

CITY           SKY/WX    TMP DP  RH WIND       PRES   REMARKS
BROOKHAVEN     FAIR      72  70  94 CALM      30.03F
COLUMBIA       FAIR      73  68  83 CALM      30.00F
HATTIESBURG    MOCLDY    74  68  81 CALM      30.02S
MCCOMB         MOCLDY    75  64  68 NE5       30.01F
NATCHEZ        CLOUDY    73  66  78 E6        30.00F
PINE BELT      MOCLDY    73  66  78 CALM      30.03S
$$

MSZ080>082-010300-
COASTAL MISSISSIPPI

CITY           SKY/WX    TMP DP  RH WIND       PRES   REMARKS
BAY ST LOUIS   CLEAR    N/A N/A N/A CALM      30.00R
BILOXI         MOCLDY    78  65  62 CALM      29.99S
PASCAGOULA     PTCLDY    72  68  87 NW3       29.99S
GULFPORT       MOCLDY    80  69  69 CALM      29.98S
$$


USA.gov is the U.S. government's official web portal to all federal, state and local government web resources and services.